CW2285 Weather Reports


Display with metric or nautical units.
time (UTC)temp
F
wind
direction
speed
MPH
gust
MPH
rain 1hr
in
rain 24hr
in
rain mn
in
humidity
%
barometer
mb
20260904063004 79 306 9.0 17.0 0.00 0.00 0.00 37 1004.9
20260904062502 79 312 6.0 17.0 0.00 0.00 0.00 37 1004.9
20260904062003 79 300 8.0 17.0 0.00 0.00 0.00 37 1004.9
20260904061503 80 292 10.0 20.0 0.00 0.00 0.00 37 1005.0
20260904061003 80 298 9.0 18.0 0.00 0.00 0.00 37 1004.9
20260904060503 80 303 9.0 18.0 0.00 0.00 0.00 36 1004.9
20260904055502 80 293 9.0 17.0 0.00 0.00 0.00 37 1004.8
20260904054503 80 300 7.0 20.0 0.00 0.00 0.00 37 1004.8
20260904054003 81 292 11.0 21.0 0.00 0.00 0.00 36 1004.8
20260904053004 81 300 10.0 20.0 0.00 0.00 0.00 36 1004.8
20260904052002 81 303 9.0 17.0 0.00 0.00 0.00 35 1004.9
20260904051003 81 306 6.0 18.0 0.00 0.00 0.00 35 1004.8
20260904050503 82 306 7.0 17.0 0.00 0.00 0.00 34 1004.8
20260904050003 82 308 6.0 13.0 0.00 0.00 0.00 34 1004.9
20260904045503 82 305 9.0 18.0 0.00 0.00 0.00 34 1004.8
20260904045002 82 314 6.0 14.0 0.00 0.00 0.00 34 1004.9
20260904044004 82 298 7.0 14.0 0.00 0.00 0.00 34 1004.9
20260904043502 83 297 5.0 18.0 0.00 0.00 0.00 34 1004.9
20260904043003 83 309 5.0 12.0 0.00 0.00 0.00 34 1004.8
20260904042003 83 307 5.0 13.0 0.00 0.00 0.00 33 1004.9
20260904041503 83 314 9.0 17.0 0.00 0.00 0.00 33 1004.8
20260904041003 83 311 7.0 14.0 0.00 0.00 0.00 33 1004.8
20260904040503 83 314 6.0 14.0 0.00 0.00 0.00 33 1004.8
20260904040003 84 299 7.0 17.0 0.00 0.00 0.00 33 1004.8
20260904035503 84 318 5.0 17.0 0.00 0.00 0.00 33 1004.7
20260904035003 84 308 7.0 12.0 0.00 0.00 0.00 33 1004.7
20260904034502 84 315 6.0 12.0 0.00 0.00 0.00 33 1004.5
20260904034003 84 310 5.0 13.0 0.00 0.00 0.00 33 1004.4
20260904033503 84 307 5.0 12.0 0.00 0.00 0.00 32 1004.4
20260904033003 85 307 5.0 12.0 0.00 0.00 0.00 32 1004.4
20260904032502 85 319 5.0 16.0 0.00 0.00 0.00 32 1004.3
20260904032003 85 306 5.0 10.0 0.00 0.00 0.00 32 1004.3
20260904031503 86 313 6.0 20.0 0.00 0.00 0.00 32 1004.2
20260904030004 87 293 10.0 23.0 0.00 0.00 0.00 31 1003.8
20260904025504 87 296 12.0 20.0 0.00 0.00 0.00 31 1003.8
20260904024503 88 307 11.0 22.0 0.00 0.00 0.00 30 1003.7
20260904024003 88 303 10.0 21.0 0.00 0.00 0.00 31 1003.7
20260904023503 88 307 9.0 23.0 0.00 0.00 0.00 30 1003.7
20260904023003 89 301 8.0 20.0 0.00 0.00 0.00 30 1003.7
20260904022503 89 298 11.0 23.0 0.00 0.00 0.00 29 1003.7
20260904022004 89 290 12.0 21.0 0.00 0.00 0.00 29 1003.7
20260904021503 90 293 10.0 17.0 0.00 0.00 0.00 28 1003.7
20260904021002 90 302 7.0 17.0 0.00 0.00 0.00 28 1003.7
20260904020003 91 296 10.0 20.0 0.00 0.00 0.00 26 1003.7
20260904015502 92 293 12.0 18.0 0.00 0.00 0.00 26 1003.7
20260904015003 92 293 8.0 17.0 0.00 0.00 0.00 24 1003.7
20260904014503 93 280 9.0 18.0 0.00 0.00 0.00 24 1003.7
20260904014003 93 296 9.0 20.0 0.00 0.00 0.00 23 1003.7
20260904013503 94 289 9.0 18.0 0.00 0.00 0.00 22 1003.7
20260904013003 94 285 9.0 15.0 0.00 0.00 0.00 22 1003.7
20260904012503 94 295 9.0 18.0 0.00 0.00 0.00 21 1003.7
20260904012003 95 293 7.0 14.0 0.00 0.00 0.00 21 1003.8
20260904011503 95 298 7.0 14.0 0.00 0.00 0.00 20 1003.7
20260904011003 96 297 10.0 18.0 0.00 0.00 0.00 20 1003.7
20260904010502 96 285 6.0 14.0 0.00 0.00 0.00 18 1003.7
20260904005503 97 297 6.0 10.0 0.00 0.00 0.00 17 1003.7
20260904004002 97 299 6.0 12.0 0.00 0.00 0.00 17 1003.7
20260904003504 99 287 5.0 12.0 0.00 0.00 0.00 15 1003.8
20260904002503 99 291 3.0 12.0 0.00 0.00 0.00 14 1003.8
20260904002003 99 312 2.0 8.0 0.00 0.00 0.00 16 1003.8
20260904001503 99 286 6.0 10.0 0.00 0.00 0.00 14 1003.9
20260904001003 98 244 1.0 5.0 0.00 0.00 0.00 13 1004.0
20260904000503 98 187 2.0 5.0 0.00 0.00 0.00 12 1004.1
20260904000003 99 191 2.0 3.0 0.00 0.00 0.00 12 1004.0
20260903235503 99 168 3.0 5.0 0.00 0.00 0.00 12 1004.1
20260903234503 98 153 3.0 6.0 0.00 0.00 0.00 12 1004.2
20260903233503 98 177 1.0 3.0 0.00 0.00 0.00 13 1004.3
20260903233003 99 8 2.0 3.0 0.00 0.00 0.00 12 1004.4
20260903232503 98 84 1.0 6.0 0.00 0.00 0.00 12 1004.5
20260903232003 100 159 4.0 7.0 0.00 0.00 0.00 12 1004.6
20260903231503 99 122 5.0 8.0 0.00 0.00 0.00 12 1004.7
20260903231003 99 32 2.0 7.0 0.00 0.00 0.00 12 1004.7
20260903230503 99 111 1.0 5.0 0.00 0.00 0.00 13 1004.7
20260903230002 100 82 5.0 8.0 0.00 0.00 0.00 11 1004.8
20260903225503 98 99 3.0 8.0 0.00 0.00 0.00 12 1004.8
20260903225003 98 150 3.0 7.0 0.00 0.00 0.00 12 1004.8
20260903224503 99 151 1.0 5.0 0.00 0.00 0.00 13 1004.8
20260903224003 100 62 4.0 8.0 0.00 0.00 0.00 12 1004.9
20260903223503 100 101 5.0 9.0 0.00 0.00 0.00 14 1005.0
20260903223004 99 62 2.0 7.0 0.00 0.00 0.00 12 1005.2
20260903222503 98 225 3.0 7.0 0.00 0.00 0.00 12 1005.3
20260903221004 98 226 3.0 6.0 0.00 0.00 0.00 13 1005.3
20260903220504 97 199 3.0 7.0 0.00 0.00 0.00 13 1005.4
20260903220003 98 110 3.0 10.0 0.00 0.00 0.00 12 1005.4
20260903215503 98 107 6.0 10.0 0.00 0.00 0.00 13 1005.5
20260903215004 98 124 5.0 7.0 0.00 0.00 0.00 13 1005.6
20260903214503 98 121 1.0 5.0 0.00 0.00 0.00 14 1005.7
20260903214003 98 93 6.0 13.0 0.00 0.00 0.00 12 1005.8
20260903213502 97 143 3.0 7.0 0.00 0.00 0.00 13 1005.8
20260903213003 98 170 2.0 7.0 0.00 0.00 0.00 15 1005.9
20260903212503 98 107 5.0 10.0 0.00 0.00 0.00 14 1005.9
20260903212003 98 174 5.0 9.0 0.00 0.00 0.00 13 1006.0
20260903211503 98 99 3.0 7.0 0.00 0.00 0.00 14 1006.0
20260903211003 97 65 0.0 3.0 0.00 0.00 0.00 13 1006.1
20260903210503 97 140 2.0 7.0 0.00 0.00 0.00 13 1006.1
20260903210003 98 97 6.0 9.0 0.00 0.00 0.00 13 1006.1
20260903205503 98 43 5.0 8.0 0.00 0.00 0.00 14 1006.2
20260903205002 97 112 5.0 8.0 0.00 0.00 0.00 13 1006.3
20260903204502 97 127 5.0 9.0 0.00 0.00 0.00 14 1006.3
20260903203502 95 113 3.0 7.0 0.00 0.00 0.00 13 1006.4
20260903203003 95 169 2.0 3.0 0.00 0.00 0.00 14 1006.4
20260903202503 94 272 0.0 3.0 0.00 0.00 0.00 14 1006.5
20260903202003 95 129 3.0 8.0 0.00 0.00 0.00 13 1006.7
20260903201004 95 206 5.0 9.0 0.00 0.00 0.00 13 1006.8
20260903200503 95 149 2.0 3.0 0.00 0.00 0.00 13 1006.8
20260903200004 95 300 1.0 6.0 0.00 0.00 0.00 17 1006.8
20260903195502 94 203 1.0 6.0 0.00 0.00 0.00 15 1006.9
20260903194003 93 214 1.0 5.0 0.00 0.00 0.00 15 1007.1
20260903193503 94 152 3.0 7.0 0.00 0.00 0.00 15 1007.2
20260903193003 93 192 2.0 7.0 0.00 0.00 0.00 16 1007.3
20260903192503 93 132 2.0 7.0 0.00 0.00 0.00 16 1007.4
20260903191504 93 143 4.0 7.0 0.00 0.00 0.00 17 1007.5
20260903191002 92 212 3.0 6.0 0.00 0.00 0.00 16 1007.7
20260903190503 93 102 1.0 3.0 0.00 0.00 0.00 16 1007.8
20260903190004 92 286 3.0 5.0 0.00 0.00 0.00 19 1007.9
20260903185503 92 235 3.0 6.0 0.00 0.00 0.00 16 1008.0
20260903185003 93 240 3.0 7.0 0.00 0.00 0.00 17 1008.0
20260903183503 91 100 1.0 3.0 0.00 0.00 0.00 15 1008.4
20260903183004 91 283 2.0 3.0 0.00 0.00 0.00 17 1008.5
20260903182503 91 184 2.0 6.0 0.00 0.00 0.00 19 1008.5
20260903182003 90 237 2.0 6.0 0.00 0.00 0.00 19 1008.5
20260903181503 90 184 2.0 5.0 0.00 0.00 0.00 19 1008.5
20260903180503 90 250 3.0 5.0 0.00 0.00 0.00 19 1008.5
20260903180003 90 243 4.0 6.0 0.00 0.00 0.00 19 1008.5
20260903175503 89 212 2.0 6.0 0.00 0.00 0.00 20 1008.5
20260903175003 88 248 0.0 2.0 0.00 0.00 0.00 20 1008.6
20260903174502 89 261 3.0 6.0 0.00 0.00 0.00 19 1008.6
20260903174003 89 281 1.0 5.0 0.00 0.00 0.00 20 1008.7
20260903173003 88 204 0.0 5.0 0.00 0.00 0.00 21 1008.8
20260903172503 88 196 3.0 7.0 0.00 0.00 0.00 22 1008.7
20260903172003 87 231 1.0 5.0 0.00 0.00 0.00 22 1008.8
20260903171503 87 169 3.0 6.0 0.00 0.00 0.00 21 1008.8
20260903170503 87 227 3.0 7.0 0.00 0.00 0.00 21 1008.8
20260903170003 87 267 2.0 5.0 0.00 0.00 0.00 22 1008.7
20260903165503 86 207 3.0 6.0 0.00 0.00 0.00 22 1008.7
20260903165002 87 188 3.0 6.0 0.00 0.00 0.00 21 1008.7
20260903164503 86 215 3.0 6.0 0.00 0.00 0.00 22 1008.6
20260903164003 86 221 5.0 8.0 0.00 0.00 0.00 21 1008.6
20260903163003 86 262 2.0 6.0 0.00 0.00 0.00 22 1008.6
20260903162503 85 251 2.0 8.0 0.00 0.00 0.00 24 1008.6
20260903162004 85 245 4.0 9.0 0.00 0.00 0.00 23 1008.6
20260903161503 85 278 3.0 7.0 0.00 0.00 0.00 22 1008.6
20260903161003 85 282 3.0 7.0 0.00 0.00 0.00 23 1008.7
20260903160503 85 301 3.0 9.0 0.00 0.00 0.00 22 1008.8
20260903160003 85 264 3.0 7.0 0.00 0.00 0.00 23 1008.8
20260903155503 84 270 4.0 9.0 0.00 0.00 0.00 22 1008.8
20260903155003 84 280 3.0 7.0 0.00 0.00 0.00 23 1008.8
20260903154003 83 269 5.0 12.0 0.00 0.00 0.00 24 1008.8
20260903153503 83 290 5.0 8.0 0.00 0.00 0.00 22 1008.8
20260903153003 82 277 3.0 9.0 0.00 0.00 0.00 23 1008.8
20260903152503 82 285 4.0 9.0 0.00 0.00 0.00 23 1008.7
20260903152003 82 286 5.0 9.0 0.00 0.00 0.00 23 1008.7
20260903151503 81 280 5.0 9.0 0.00 0.00 0.00 24 1008.6
20260903151003 81 281 5.0 9.0 0.00 0.00 0.00 25 1008.7
20260903150503 81 282 5.0 10.0 0.00 0.00 0.00 25 1008.7
20260903150003 80 294 2.0 8.0 0.00 0.00 0.00 25 1008.7
20260903144503 79 281 5.0 12.0 0.00 0.00 0.00 27 1008.5
20260903144003 79 285 5.0 9.0 0.00 0.00 0.00 28 1008.5
20260903143504 78 285 3.0 9.0 0.00 0.00 0.00 27 1008.5
20260903143003 78 286 3.0 7.0 0.00 0.00 0.00 28 1008.5
20260903142003 77 287 2.0 6.0 0.00 0.00 0.00 28 1008.3
20260903141504 77 291 5.0 9.0 0.00 0.00 0.00 27 1008.2
20260903140504 77 280 6.0 13.0 0.00 0.00 0.00 29 1008.0
20260903140003 77 286 6.0 12.0 0.00 0.00 0.00 29 1008.0
20260903135502 77 285 4.0 10.0 0.00 0.00 0.00 29 1008.0
20260903135003 77 289 3.0 12.0 0.00 0.00 0.00 28 1007.9
20260903134503 77 287 5.0 12.0 0.00 0.00 0.00 29 1007.9
20260903134003 77 291 5.0 12.0 0.00 0.00 0.00 28 1007.8
20260903133503 77 298 4.0 10.0 0.00 0.00 0.00 27 1007.7
20260903133002 77 270 3.0 10.0 0.00 0.00 0.00 28 1007.6
20260903132503 77 286 5.0 13.0 0.00 0.00 0.00 28 1007.5
20260903132004 77 296 8.0 15.0 0.00 0.00 0.00 28 1007.4
20260903131503 77 307 3.0 9.0 0.00 0.00 0.00 27 1007.4
20260903130504 77 290 5.0 12.0 0.00 0.00 0.00 26 1007.4
20260903130003 77 274 3.0 9.0 0.00 0.00 0.00 27 1007.4
20260903125503 77 260 3.0 8.0 0.00 0.00 0.00 26 1007.4
20260903125003 77 304 2.0 10.0 0.00 0.00 0.00 26 1007.4
20260903124503 77 295 4.0 12.0 0.00 0.00 0.00 26 1007.4
20260903124003 77 283 3.0 12.0 0.00 0.00 0.00 27 1007.2
20260903123502 77 278 4.0 12.0 0.00 0.00 0.00 26 1007.2
20260903123003 77 287 7.0 12.0 0.00 0.00 0.00 27 1007.1
20260903122003 77 292 6.0 12.0 0.00 0.00 0.00 27 1006.9
20260903121503 77 294 7.0 14.0 0.00 0.00 0.00 27 1006.9
20260903121003 77 302 6.0 15.0 0.00 0.00 0.00 27 1007.0
20260903120503 77 287 7.0 14.0 0.00 0.00 0.00 27 1007.0
20260903120003 77 292 5.0 12.0 0.00 0.00 0.00 27 1007.0
20260903115503 77 300 6.0 15.0 0.00 0.00 0.00 28 1007.1
20260903115003 77 295 4.0 13.0 0.00 0.00 0.00 28 1007.1
20260903114503 77 302 8.0 17.0 0.00 0.00 0.00 28 1007.1
20260903114003 77 298 9.0 20.0 0.00 0.00 0.00 29 1007.1
20260903113503 77 290 9.0 16.0 0.00 0.00 0.00 29 1007.0
20260903112503 78 296 10.0 20.0 0.00 0.00 0.00 29 1006.9
20260903112003 78 295 10.0 20.0 0.00 0.00 0.00 28 1006.9
20260903111503 78 303 9.0 17.0 0.00 0.00 0.00 28 1006.9
20260903110504 78 307 7.0 16.0 0.00 0.00 0.00 29 1006.9
20260903110004 78 295 7.0 13.0 0.00 0.00 0.00 30 1006.9
20260903105503 78 303 7.0 20.0 0.00 0.00 0.00 29 1006.9
20260903105003 78 305 10.0 20.0 0.00 0.00 0.00 30 1007.0
20260903104503 78 293 10.0 18.0 0.00 0.00 0.00 31 1006.9
20260903104004 78 291 9.0 20.0 0.00 0.00 0.00 31 1007.0
20260903103503 78 284 9.0 18.0 0.00 0.00 0.00 31 1007.0
20260903103003 78 297 8.0 18.0 0.00 0.00 0.00 31 1007.1
20260903102003 78 286 12.0 24.0 0.00 0.00 0.00 30 1007.0
20260903101503 78 292 10.0 17.0 0.00 0.00 0.00 29 1007.0
20260903101003 78 286 12.0 23.0 0.00 0.00 0.00 29 1007.0
20260903100503 79 288 10.0 20.0 0.00 0.00 0.00 28 1007.0
20260903100003 79 286 9.0 21.0 0.00 0.00 0.00 29 1007.0
20260903095503 79 298 9.0 16.0 0.00 0.00 0.00 28 1007.0
20260903095002 79 293 8.0 16.0 0.00 0.00 0.00 27 1007.2
20260903094003 79 290 12.0 20.0 0.00 0.00 0.00 27 1007.3
20260903093504 79 286 6.0 15.0 0.00 0.00 0.00 28 1007.4
20260903093003 78 293 7.0 15.0 0.00 0.00 0.00 29 1007.4
20260903092503 78 303 10.0 16.0 0.00 0.00 0.00 29 1007.4
20260903092003 79 298 7.0 17.0 0.00 0.00 0.00 29 1007.4
20260903091003 79 302 10.0 20.0 0.00 0.00 0.00 29 1007.4
20260903090003 78 308 7.0 18.0 0.00 0.00 0.00 31 1007.4
20260903085003 78 305 9.0 17.0 0.00 0.00 0.00 32 1007.5
20260903084504 78 302 9.0 20.0 0.00 0.00 0.00 32 1007.5
20260903084004 79 298 10.0 18.0 0.00 0.00 0.00 32 1007.6
20260903083503 79 281 11.0 22.0 0.00 0.00 0.00 31 1007.7
20260903083003 79 302 9.0 16.0 0.00 0.00 0.00 32 1007.6
20260903082503 79 296 8.0 17.0 0.00 0.00 0.00 32 1007.6
20260903082003 79 297 9.0 17.0 0.00 0.00 0.00 32 1007.7
20260903081503 79 292 10.0 18.0 0.00 0.00 0.00 32 1007.7
20260903081002 79 298 9.0 16.0 0.00 0.00 0.00 32 1007.8
20260903080503 79 297 7.0 17.0 0.00 0.00 0.00 32 1007.8
20260903080003 79 302 9.0 16.0 0.00 0.00 0.00 32 1007.8
20260903075504 79 297 9.0 18.0 0.00 0.00 0.00 32 1007.7
20260903075003 79 306 10.0 17.0 0.00 0.00 0.00 31 1007.7
20260903074003 79 300 10.0 20.0 0.00 0.00 0.00 33 1007.7
20260903073503 79 298 10.0 17.0 0.00 0.00 0.00 33 1007.7
20260903073003 79 303 9.0 20.0 0.00 0.00 0.00 33 1007.7
20260903072503 79 288 9.0 20.0 0.00 0.00 0.00 33 1007.5
20260903072004 80 308 9.0 20.0 0.00 0.00 0.00 33 1007.5
20260903071503 80 298 10.0 18.0 0.00 0.00 0.00 32 1007.5
20260903071004 80 313 6.0 20.0 0.00 0.00 0.00 32 1007.7
20260903070504 80 300 8.0 13.0 0.00 0.00 0.00 32 1007.6
20260903070003 79 309 5.0 16.0 0.00 0.00 0.00 33 1007.7
20260903065503 79 305 6.0 14.0 0.00 0.00 0.00 32 1007.6
20260903065003 80 304 6.0 15.0 0.00 0.00 0.00 32 1007.5
20260903064003 80 306 8.0 18.0 0.00 0.00 0.00 32 1007.7
20260903063503 80 314 10.0 21.0 0.00 0.00 0.00 32 1007.6